Infomails.de



www.awekas.at



Wetterübersicht - Penzberg,Oberbayern
N 47° 45' 25" O 11° 22' 5 " - 606 m über NN
Wetterstation: VantagePro Plus
CallSign-ID APRS: CW0334
Datum Freitag, 31. Oktober 2014
Zeit 13:33 (-1h = UTC-Zeit)
Temperatur Außen
aktuell
16,8 °C
Min.(06:47)
0,0 °C
(2013:) 2,1 °C (02:41)
Max.(13:08)
16,8 °C
(2013:) 6,9 °C (14:31)
Durchschnitt
4,9 °C
(2013:) 5,3 °C
Durchschnitt gestern: 5,5 °C

Max. gestern: 11,1 °C
Luftfeuchte Außen
aktuell
52 %
Min.(13:14)
51 %
(2013:) 83 % (14:38)
Max.(09:22)
96 %
(2013:) 93 % (08:53)
Durchschnitt
86 %
(2013:) 89 %
Absolute Aussen-Feuchte: 7,43 g/m³
Lüften: Sie können unbesorgt lüften.
Taupunkt aktuell
6,9 °C
Min.(06:47)
-0,8 °C
Max.(11:19)
10,5 °C
Durchschnitt
2,5 °C
Luftdruck
aktuell
1024,1 hPa
-1,3 hPa/3h
Tendenz: fallend
Min.(13:32)
1024,1 hPa
(2013:) 1022,0 hPa (16:30)
Max.(08:17)
1026,1 hPa
(2013:) 1024,4 hPa (00:00)
Durchschnitt
1025,4 hPa
(2013:) 1023,0 hPa
-0,5 hPa/1h -1,1 hPa/2h -1,8 hPa/6h -1,3 hPa/12h -1,3 hPa/24h
UV-Index aktuell
0,0 UV-I
Belastung:none
Max.(00:00)
0,0 UV-I
Durchschnitt
0,0 UV-I
Solarstrahlung aktuell
236 W/m²
Max.(10:55)
498 W/m²
Durchschnitt
241 W/m²
mögl. Gesamtleistung:
2415 W/m²
Evapotranspiration Aktuell: 0,000 mm
Tag: 0,533 mm
Wettervorhersage veränderlich
Wettervorhersage VantagePro

Klick für 4-Tages-Vorhersage
Teilweise wolkig mit wenig Temperaturänderung.
Schneefallgrenze ~ 2280 m (berechnet)
Wolkenuntergrenze ~ 1525 m (berechnet)
Horizontsichtweite ~ 6-10 km (berechnet)
Windchill aktuell
16,8 °C
Min.(06:47)
0,0 °C
Max.(13:08)
16,8 °C
Durchschnitt
4,9 °C
Wind-Böen aktuell
0,0 km/h (0 Bft)
=
Max.(00:00)
- - 0,0 km/h (0 Bft)
(2013:) 4,8 km/h (08:37)
Durchschnitt
0,0 km/h (0 Bft)
(2013:) 0,0 km/h
Windgeschwindigkeit aktuell
0,0 km/h (0 Bft)
=
Max.(00:00)
- - 0,0 km/h (0 Bft)
(2013:) 3,2 km/h (08:20)
Durchschnitt
0,0 km/h (0 Bft)
(2013:) 1,0 km/h
Windrichtung 13 ° / N-NO dominierend
N
Windrichtung Windböen 0 ° / - -
Seegang 0 - glatte See
letzter Frost Erster Frost: 25.10.2014
Letzter Frost: 07:17 30.10.2014
Dauer: 4 Minuten
  (ab 07:13 30.10.2014)

Erster Frosttag im letzten Jahr: 04.11.2013    Erster Frosttag im vorletzten Jahr 27.10.2012
Letzter Frosttag in diesem Jahr 18.04.2014    Letzter Frosttag im letzten Jahr 08.04.2013
Niederschlag
Klick für Regenradar Bayern
letzte Std. 0,0 mm
letzten 24 Std. 0,3 mm
aktueller Tag 0,3 mm
Gestern 0,5 mm
aktuelle Woche 0,8 mm
aktueller Monat 126,2 mm
letztes Monat 80,3 mm
Oktober Vorjahr 103,9 mm
aktuelles Jahr 833,9 mm
Vorjahr 968,3 mm
Regentage / Jahr 155 Tage
Regentage / Vorjahr 152 Tage
durchschnittlich im Oktober 76,6 mm
Das bedeutet bisher: +49,6 mm
Letzter Niederschlag 09:07 31.10.2014
Es hat also seit 4 h, 25 min nicht mehr geregnet
Schneehöhe 0,0 cm
Mond
Alter des Mondes7 Tage, 19 Stunden, 41 Minuten
Mondaufgang13:29
Mondzenit18:40
Monduntergang---
MondphaseÝ 55%
(0% = Neumond, 100% = Vollmond)
letztes Viertel16:16    14. November 2014
erstes Viertel11:07    29. November 2014
nächster Vollmond23:23    6. November 2014
nächster Neumond13:33    22. November 2014
Sonne
Sonnenaufgang gestern06:55    30. Oktober 2014
Sonnenaufgang06:57
Sonnenzenit11:58
Sonnenuntergang16:58
Sonnenaufgang morgen06:58    1. November 2014
Sonnenuntergang morgen16:57    1. November 2014
Tageslänge10:01
Bewölkungsgradsonnig
Sonnenhöchststand28,087 °
Sichtweite6-10 km
Elevation24,548 °
Azimuth-25,382 °
Tagessonnenstunden3:55 Stunden
Wochensonnenstunden4:26 Stunden
Monatssonnenstunden97:37 Stunden
Jahressonnenstunden1335:00 Stunden
Die dargestellten Werte repräsentieren die Daten des aktuellen Tages! Der Luftdruck ist auf Meereshöhe bezogen!
Die Mond-/Sonnen-Daten beziehen sich auf die Standortkoordinaten von 47° 45' 25" Nord  -  11° 22' 5" Ost
Zeit --> Mittel Europäische Zeit
Die Wettervorhersage wurde berechnet - ohne Gewähr!


Jahres-Eistage (Tmax < 0°C) 0 Vorjahres-Eistage (Tmax < 0°C) 12
Jahres-Frosttage (Tmin <= 0°C) 57 Vorjahres-Frosttage (Tmin <= 0°C) 104
Kalte Tage des Jahres (Tmax < 10°C) 55 Kalte Tage des Vorjahres (Tmax < 10°C) 131
Jahres-Sommertage (Tmax >= 25°C) 51 Vorjahres-Sommertage (Tmax >= 25°C) 62
Heiße Tage des Jahres (Tmax >= 30°C) 12 Heiße Tage Vorjahr (Tmax >= 30°C) 22

Die Jahresanzahlen gelten immer für den Zeitraum 01.01. bis 31.12. des laufenden Jahres.
Sie sind also nur bedingt vergleichbar, können aber einen Anhalt geben ob das Jahr kühler oder wärmer als das vorherige wird.

Monats-Eistage (Tmax < 0°C) 0 Monats-Eistage Vorjahr (Tmax < 0°C) 0
Monats-Frosttage (Tmin <= 0°C) 4 Monats-Frosttage Vorjahr(Tmin <= 0°C) 0
Kalte Tage des Monats(Tmax < 10°C) 5 Kalte Tage des Monats Vorjahr (Tmax < 10°C) 3
Monats-Sommertage (Tmax >= 25°C) 2 Monats-Sommertage Vorjahr (Tmax >= 25°C) 2
Heiße Tage des Monats (Tmax >= 30°C) 0 Heiße Tage des Monats Vorjahr (Tmax >= 30°C) 0

Mit diesen Zahlen kann man sehr gut den jeweiligen aktuellen Monat und den des Vorjahrs vergleichen.

Durchschnitts-Temperatur des aktuellen Monats 11,07 °C
Standardabweichung des Monats +1,09
Normaltemperatur Jahr 9,2 °C
Durchschnitts-Temperatur des aktuellen Jahres 11,25 °C

          Aussen-      Aussen                                                                          Wind         Sonnen        Sonnen
Zeit     tempera.      Feuchte     Luftdruck      Taupunkt     Windchill     Regen        Wind       richtung     Elevation      azimuth
----------------------------------------------------------------------------------------------------------------------------------------
00:00      3,6 °C         93 %     1025,4 hPa      2,6 °C        3,6 °C      0,0 mm     0,0 km/h          - -     -56,235 °    179,203 °
01:00      2,5 °C         93 %     1025,6 hPa      1,5 °C        2,5 °C      0,0 mm     0,0 km/h          - -     -53,890 °    153,974 °
02:00      1,8 °C         93 %     1025,4 hPa      0,8 °C        1,8 °C      0,0 mm     0,0 km/h          - -     -47,868 °    132,853 °
03:00      1,2 °C         94 %     1025,5 hPa      0,3 °C        1,2 °C      0,0 mm     0,0 km/h          - -     -39,569 °    116,233 °
04:00      0,9 °C         94 %     1025,1 hPa      0,0 °C        0,9 °C      0,0 mm     0,0 km/h          - -     -30,083 °    102,746 °
05:00      0,9 °C         94 %     1025,3 hPa      0,0 °C        0,9 °C      0,0 mm     0,0 km/h          - -     -20,096 °     91,035 °
06:00      0,2 °C         94 %     1025,6 hPa     -0,6 °C        0,2 °C      0,0 mm     0,0 km/h          - -     -10,068 °     80,102 °
07:00      0,0 °C         94 %     1025,5 hPa     -0,8 °C        0,0 °C      0,0 mm     0,0 km/h          - -      -0,366 °     69,203 °
08:00      0,4 °C         94 %     1026,0 hPa     -0,5 °C        0,4 °C      0,0 mm     0,0 km/h          - -       8,636 °     57,735 °
09:00      3,4 °C         95 %     1025,8 hPa      2,7 °C        3,4 °C      0,0 mm     0,0 km/h          - -      16,509 °     45,192 °
10:00      8,0 °C         96 %     1025,2 hPa      7,4 °C        8,0 °C      0,0 mm     0,0 km/h          - -      22,736 °     31,224 °
11:00     13,7 °C         75 %     1025,3 hPa      9,3 °C       13,7 °C      0,0 mm     0,0 km/h           NW      26,753 °     15,819 °
12:00     15,1 °C         59 %     1024,9 hPa      7,1 °C       15,1 °C      0,0 mm     0,0 km/h           SW      28,086 °     -0,508 °
13:00     16,5 °C         53 %     1024,6 hPa      6,9 °C       16,5 °C      0,0 mm     0,0 km/h         N-NO      26,552 °    -16,796 °
----------------------------------------------------------------------------------------------------------------------------------------
Durch.     4,9 °C         86 %     1025,4 hPa      2,5 °C        4,9 °C      0,0 mm     0,0 km/h

Min.       0,0 °C         51 %     1024,1 hPa     -0,8 °C        0,0 °C      0,0 mm     0,0 km/h
Zeit      06:47         13:14       13:32         06:47          06:47       00:00        00:00

Max.      16,8 °C         96 %     1026,1 hPa     10,5 °C       16,8 °C      0,3 mm     0,0 km/h
Zeit      13:08         09:22       08:17         11:19          13:08       09:07        00:00



Grafische Darstellung (Zum Vergrößern einfach Doppelklick auf die Grafik):

Erzeugt mit V2.97.10 von Werner Krenn


Tabellarische 24-Stundenübersicht: Aktuell


Mondphase:

Letztes Update:
23.04.2006
© by B2-Design

© 1999-2013 Werner Krenn / Mischa Thurnherr - Wetterstation Bedien- und Auswertesoftware - V2.97.10

Powered by Hier klicken!